Satellite: NOAA-10
Catalog number: 16969
Epoch time: 13332.55589208
Element set: 582
Inclination: 098.5312 deg
RA of node: 356.6981 deg
Eccentricity: 0.0013305
Arg of perigee: 122.7045 deg
Mean anomaly: 038.8906 deg
Mean motion: 14.27686993 rev/day
Decay rate: 1.17e-06 rev/day^2
Epoch rev: 41539
Checksum: 330
Satellite: NOAA-11
Catalog number: 19531
Epoch time: 13332.27366033
Element set: 606
Inclination: 098.7004 deg
RA of node: 051.3526 deg
Eccentricity: 0.0012036
Arg of perigee: 149.1670 deg
Mean anomaly: 211.0213 deg
Mean motion: 14.15040387 rev/day
Decay rate: 1.05e-06 rev/day^2
Epoch rev: 29932
Checksum: 249
Satellite: NOAA-12
Catalog number: 21263
Epoch time: 13332.50737295
Element set: 63
Inclination: 098.6833 deg
RA of node: 356.4810 deg
Eccentricity: 0.0014958
Arg of perigee: 102.5110 deg
Mean anomaly: 058.1338 deg
Mean motion: 14.25603085 rev/day
Decay rate: 9.7e-07 rev/day^2
Epoch rev: 17196
Checksum: 290
Satellite: MET-3/5
Catalog number: 21655
Epoch time: 13332.18759615
Element set: 842
Inclination: 082.5544 deg
RA of node: 138.4371 deg
Eccentricity: 0.0014264
Arg of perigee: 081.8072 deg
Mean anomaly: 278.4667 deg
Mean motion: 13.17047058 rev/day
Decay rate: 4.20e-06 rev/day^2
Epoch rev: 7152
Checksum: 300
Satellite: MET-2/21
Catalog number: 22782
Epoch time: 13332.50190553
Element set: 908
Inclination: 082.5483 deg
RA of node: 332.5396 deg
Eccentricity: 0.0023731
Arg of perigee: 108.0357 deg
Mean anomaly: 048.0752 deg
Mean motion: 13.83716961 rev/day
Decay rate: 3.7e-07 rev/day^2
Epoch rev: 2236
Checksum: 289
Satellite: OKEAN-4
Catalog number: 23317
Epoch time: 13331.84585368
Element set: 388
Inclination: 082.5403 deg
RA of node: 256.5764 deg
Eccentricity: 0.0022109
Arg of perigee: 049.2618 deg
Mean anomaly: 050.0630 deg
Mean motion: 14.84826483 rev/day
Decay rate: 1.478e-05 rev/day^2
Epoch rev: 3322
Checksum: 299
Satellite: NOAA-14
Catalog number: 23455
Epoch time: 13332.47231873
Element set: 540
Inclination: 098.7943 deg
RA of node: 054.3515 deg
Eccentricity: 0.0008648
Arg of perigee: 246.9033 deg
Mean anomaly: 241.6150 deg
Mean motion: 14.13932898 rev/day
Decay rate: 1.1e-07 rev/day^2
Epoch rev: 97558
Checksum: 310
Satellite: NOAA-15
Catalog number: 25338
Epoch time: 13332.51003235
Element set: 969
Inclination: 098.7384 deg
RA of node: 321.9429 deg
Eccentricity: 0.0010770
Arg of perigee: 016.8953 deg
Mean anomaly: 140.3326 deg
Mean motion: 14.25299939 rev/day
Decay rate: 1.71e-06 rev/day^2
Epoch rev: 80825
Checksum: 312
Satellite: RESURS
Catalog number: 25394
Epoch time: 13331.89629418
Element set: 526
Inclination: 098.3850 deg
RA of node: 300.0669 deg
Eccentricity: 0.0002458
Arg of perigee: 116.7485 deg
Mean anomaly: 296.2067 deg
Mean motion: 14.24349621 rev/day
Decay rate: 4.7e-07 rev/day^2
Epoch rev: 79966
Checksum: 328
Satellite: FENGYUN1
Catalog number: 25730
Epoch time: 13332.24153425
Element set: 21
Inclination: 098.8939 deg
RA of node: 289.9048 deg
Eccentricity: 0.0026528
Arg of perigee: 315.5883 deg
Mean anomaly: 147.7404 deg
Mean motion: 14.11002742 rev/day
Decay rate: 2.680e-05 rev/day^2
Epoch rev: 74917
Checksum: 302
Satellite: OKEAN-0
Catalog number: 25860
Epoch time: 13332.53150671
Element set: 108
Inclination: 098.0150 deg
RA of node: 293.0009 deg
Eccentricity: 0.0001287
Arg of perigee: 074.8681 deg
Mean anomaly: 061.5239 deg
Mean motion: 14.74812711 rev/day
Decay rate: 7.09e-06 rev/day^2
Epoch rev: 77257
Checksum: 284
Satellite: NOAA-16
Catalog number: 26536
Epoch time: 13332.57916472
Element set: 457
Inclination: 099.0208 deg
RA of node: 026.7919 deg
Eccentricity: 0.0010809
Arg of perigee: 037.5359 deg
Mean anomaly: 132.6815 deg
Mean motion: 14.12948662 rev/day
Decay rate: 2.50e-06 rev/day^2
Epoch rev: 67978
Checksum: 333
Satellite: NOAA-17
Catalog number: 27453
Epoch time: 13332.56628140
Element set: 362
Inclination: 098.3106 deg
RA of node: 337.9160 deg
Eccentricity: 0.0012338
Arg of perigee: 048.6000 deg
Mean anomaly: 058.6656 deg
Mean motion: 14.24649549 rev/day
Decay rate: 1.49e-06 rev/day^2
Epoch rev: 59412
Checksum: 304
Satellite: NOAA-18
Catalog number: 28654
Epoch time: 13332.50671763
Element set: 851
Inclination: 099.1233 deg
RA of node: 303.2729 deg
Eccentricity: 0.0015278
Arg of perigee: 106.7822 deg
Mean anomaly: 040.8433 deg
Mean motion: 14.11899134 rev/day
Decay rate: 2.35e-06 rev/day^2
Epoch rev: 43924
Checksum: 302
Satellite: NOAA-19
Catalog number: 33591
Epoch time: 13332.55442382
Element set: 26
Inclination: 098.9228 deg
RA of node: 273.4527 deg
Eccentricity: 0.0013515
Arg of perigee: 329.7959 deg
Mean anomaly: 135.6570 deg
Mean motion: 14.11590241 rev/day
Decay rate: 3.10e-06 rev/day^2
Epoch rev: 24768
Checksum: 307
/EX
SB KEPS @ AMSAT $ORB13332.M
Orbital Elements 13332.MISC
HR AMSAT ORBITAL ELEMENTS FOR MANNED AND MISCELLANEOUS SATELLITES
FROM WA5QGD FORT WORTH,TX November 28, 2013
BID: ORB13332.M
TO ALL RADIO AMATEURS BT
Satellite: HUBBLE
Catalog number: 20580
Epoch time: 13332.31919740
Element set: 383
Inclination: 028.4711 deg
RA of node: 276.4265 deg
Eccentricity: 0.0003059
Arg of perigee: 304.2265 deg
Mean anomaly: 189.7560 deg
Mean motion: 15.04263451 rev/day
Decay rate: 2.429e-05 rev/day^2
Epoch rev: 9443
Checksum: 281
Satellite: ISS
Catalog number: 25544
Epoch time: 13333.08520601
Element set: 123
Inclination: 051.6512 deg
RA of node: 011.3418 deg
Eccentricity: 0.0001309
Arg of perigee: 100.0010 deg
Mean anomaly: 299.2865 deg
Mean motion: 15.50607943 rev/day
Decay rate: 1.1129e-04 rev/day^2
Epoch rev: 86028
Checksum: 240
Satellite: CO-58
Catalog number: 28895
Epoch time: 13332.15174036
Element set: 632
Inclination: 097.8490 deg
RA of node: 179.3156 deg
Eccentricity: 0.0016234
Arg of perigee: 285.7618 deg
Mean anomaly: 074.1793 deg
Mean motion: 14.61369045 rev/day
Decay rate: 9.51e-06 rev/day^2
Epoch rev: 43088
Checksum: 335
Satellite: FALCON
Catalog number: 30776
Epoch time: 13331.89421965
Element set: 746
Inclination: 035.4308 deg
RA of node: 276.3308 deg
Eccentricity: 0.0002800
Arg of perigee: 267.3683 deg
Mean anomaly: 132.5601 deg
Mean motion: 15.12425586 rev/day
Decay rate: 7.218e-05 rev/day^2
Epoch rev: 37020
Checksum: 287
Satellite: MAST
Catalog number: 31126
Epoch time: 13332.06214067
Element set: 911
Inclination: 097.8943 deg
RA of node: 318.7601 deg
Eccentricity: 0.0091542
Arg of perigee: 261.4319 deg
Mean anomaly: 169.0776 deg
Mean motion: 14.54818024 rev/day
Decay rate: 7.21e-06 rev/day^2
Epoch rev: 35114
Checksum: 281
Satellite: CAPE1
Catalog number: 31130
Epoch time: 13331.94130895
Element set: 914
Inclination: 097.9137 deg
RA of node: 315.0908 deg
Eccentricity: 0.0098641
Arg of perigee: 278.8439 deg
Mean anomaly: 080.1600 deg
Mean motion: 14.53817088 rev/day
Decay rate: 1.075e-05 rev/day^2
Epoch rev: 35056
Checksum: 304
Satellite: COMPASS
Catalog number: 32787
Epoch time: 13332.85836944
Element set: 791
Inclination: 097.7325 deg
RA of node: 027.0318 deg
Eccentricity: 0.0015700
Arg of perigee: 120.5068 deg
Mean anomaly: 239.7700 deg
Mean motion: 14.86297779 rev/day
Decay rate: 2.782e-05 rev/day^2
Epoch rev: 30241
Checksum: 317
Satellite: AAUSAT2
Catalog number: 32788
Epoch time: 13332.13950829
Element set: 774
Inclination: 097.7337 deg
RA of node: 027.1035 deg
Eccentricity: 0.0015222
Arg of perigee: 121.8930 deg
Mean anomaly: 238.3769 deg
Mean motion: 14.86830550 rev/day
Decay rate: 3.134e-05 rev/day^2
Epoch rev: 30235
Checksum: 297
Satellite: DO-64
Catalog number: 32789
Epoch time: 13332.74370167
Element set: 811
Inclination: 097.7511 deg
RA of node: 032.5193 deg
Eccentricity: 0.0014519
Arg of perigee: 111.3430 deg
Mean anomaly: 036.8535 deg
Mean motion: 14.90107378 rev/day
Decay rate: 5.667e-05 rev/day^2
Epoch rev: 30261
Checksum: 297
Satellite: CO-66
Catalog number: 32791
Epoch time: 13332.12286666
Element set: 768
Inclination: 097.7325 deg
RA of node: 025.4486 deg
Eccentricity: 0.0016242
Arg of perigee: 124.7229 deg
Mean anomaly: 267.8512 deg
Mean motion: 14.85280150 rev/day
Decay rate: 1.752e-05 rev/day^2
Epoch rev: 30220
Checksum: 304
Satellite: RS-30
Catalog number: 32953
Epoch time: 13332.73774341
Element set: 421
Inclination: 082.5001 deg
RA of node: 325.8624 deg
Eccentricity: 0.0017603
Arg of perigee: 232.3995 deg
Mean anomaly: 127.5483 deg
Mean motion: 12.43039961 rev/day
Decay rate: 1.0e-07 rev/day^2
Epoch rev: 25035
Checksum: 271
Satellite: METEOR-M
Catalog number: 35865
Epoch time: 13332.67740459
Element set: 26
Inclination: 098.5812 deg
RA of node: 020.8773 deg
Eccentricity: 0.0002283
Arg of perigee: 339.6672 deg
Mean anomaly: 020.4413 deg
Mean motion: 14.21899649 rev/day
Decay rate: 1.4e-07 rev/day^2
Epoch rev: 21784
Checksum: 305
Satellite: RS-38
Catalog number: 35869
Epoch time: 13332.75200538
Element set: 985
Inclination: 098.5745 deg
RA of node: 020.8141 deg
Eccentricity: 0.0004356
Arg of perigee: 328.7681 deg
Mean anomaly: 031.3240 deg
Mean motion: 14.22160238 rev/day
Decay rate: 6.7e-07 rev/day^2
Epoch rev: 21788
Checksum: 305
Satellite: JUGNU
Catalog number: 37839
Epoch time: 13332.52590111
Element set: 510
Inclination: 019.9633 deg
RA of node: 030.9906 deg
Eccentricity: 0.0019068
Arg of perigee: 294.5966 deg
Mean anomaly: 200.7848 deg
Mean motion: 14.12211877 rev/day
Decay rate: 4.81e-06 rev/day^2
Epoch rev: 11015
Checksum: 288
Satellite: SRMSAT
Catalog number: 37841
Epoch time: 13331.60911265
Element set: 509
Inclination: 019.9738 deg
RA of node: 051.8383 deg
Eccentricity: 0.0011663
Arg of perigee: 231.5618 deg
Mean anomaly: 273.7376 deg
Mean motion: 14.10271033 rev/day
Decay rate: 4.33e-06 rev/day^2
Epoch rev: 10987
Checksum: 287
